| time (UTC) | temp C | wind direction | speed KPH | gust KPH | rain 1hr cm | rain 24hr cm | rain mn cm | humidity % | barometer mb |
| 20260507221547 | 15 | 0 | 3.2 | 9.7 | 0.00 | 0.10 | 0.00 | 34 | 1005.7 |
| 20260507220055 | 15 | 221 | 1.6 | 11.3 | 0.00 | 0.10 | 0.00 | 32 | 1005.6 |
| 20260507214554 | 16 | 338 | 4.8 | 12.9 | 0.00 | 0.23 | 0.00 | 34 | 1005.5 |
| 20260507213052 | 16 | 0 | 1.6 | 12.9 | 0.00 | 0.23 | 0.00 | 32 | 1005.5 |
| 20260507211552 | 16 | 350 | 4.8 | 17.7 | 0.00 | 0.23 | 0.00 | 34 | 1005.5 |
| 20260507210049 | 16 | 302 | 0.0 | 9.7 | 0.00 | 0.23 | 0.00 | 33 | 1005.5 |
| 20260507204551 | 17 | 330 | 3.2 | 14.5 | 0.00 | 0.36 | 0.00 | 34 | 1005.3 |
| 20260507203047 | 17 | 186 | 1.6 | 12.9 | 0.00 | 0.36 | 0.00 | 32 | 1005.3 |
| 20260507201546 | 17 | 252 | 1.6 | 17.7 | 0.00 | 0.36 | 0.00 | 32 | 1005.3 |
| 20260507200046 | 17 | 0 | 0.0 | 11.3 | 0.00 | 0.36 | 0.00 | 33 | 1005.3 |
| 20260507194553 | 17 | 0 | 1.6 | 24.1 | 0.00 | 0.43 | 0.00 | 31 | 1005.5 |
| 20260507193049 | 18 | 352 | 3.2 | 17.7 | 0.00 | 0.43 | 0.00 | 31 | 1005.5 |
| 20260507191551 | 18 | 206 | 3.2 | 17.7 | 0.00 | 0.43 | 0.00 | 33 | 1005.7 |
| 20260507190047 | 18 | 64 | 4.8 | 30.6 | 0.00 | 0.43 | 0.00 | 33 | 1006.0 |
| 20260507184550 | 17 | 308 | 6.4 | 17.7 | 0.00 | 0.74 | 0.00 | 36 | 1006.1 |
| 20260507183052 | 17 | 323 | 4.8 | 20.9 | 0.00 | 0.74 | 0.00 | 39 | 1006.2 |
| 20260507181551 | 18 | 348 | 4.8 | 19.3 | 0.00 | 0.74 | 0.00 | 35 | 1006.4 |
| 20260507180057 | 18 | 312 | 6.4 | 20.9 | 0.00 | 0.74 | 0.00 | 36 | 1006.1 |
| 20260507174605 | 18 | 319 | 4.8 | 14.5 | 0.00 | 0.86 | 0.00 | 36 | 1005.9 |
| 20260507173052 | 17 | 360 | 3.2 | 14.5 | 0.00 | 0.86 | 0.00 | 37 | 1006.1 |
| 20260507171603 | 17 | 294 | 3.2 | 12.9 | 0.00 | 0.86 | 0.00 | 35 | 1006.2 |
| 20260507170050 | 17 | 236 | 1.6 | 12.9 | 0.00 | 0.86 | 0.00 | 41 | 1006.4 |
| 20260507164549 | 16 | 174 | 1.6 | 16.1 | 0.00 | 0.86 | 0.00 | 42 | 1006.6 |
| 20260507163053 | 15 | 307 | 1.6 | 11.3 | 0.00 | 0.86 | 0.00 | 47 | 1006.8 |
| 20260507161559 | 15 | 341 | 4.8 | 11.3 | 0.00 | 0.86 | 0.00 | 51 | 1006.8 |
| 20260507160054 | 15 | 355 | 3.2 | 20.9 | 0.00 | 0.86 | 0.00 | 53 | 1007.0 |
| 20260507154550 | 14 | 348 | 1.6 | 11.3 | 0.00 | 0.86 | 0.00 | 58 | 1007.2 |
| 20260507153101 | 15 | 330 | 1.6 | 12.9 | 0.00 | 0.86 | 0.00 | 57 | 1007.4 |
| 20260507151548 | 14 | 0 | 1.6 | 9.7 | 0.00 | 0.86 | 0.00 | 56 | 1007.6 |
| 20260507150048 | 15 | 197 | 1.6 | 9.7 | 0.00 | 0.86 | 0.00 | 57 | 1007.7 |
| 20260507144553 | 15 | 315 | 1.6 | 12.9 | 0.00 | 0.86 | 0.00 | 56 | 1007.6 |
| 20260507143051 | 15 | 0 | 1.6 | 9.7 | 0.00 | 0.86 | 0.00 | 60 | 1007.5 |
| 20260507141552 | 15 | 349 | 1.6 | 8.0 | 0.00 | 0.86 | 0.00 | 63 | 1007.5 |
| 20260507140101 | 14 | 348 | 1.6 | 14.5 | 0.00 | 0.86 | 0.00 | 63 | 1007.5 |
| 20260507134553 | 13 | 326 | 4.8 | 14.5 | 0.00 | 0.86 | 0.00 | 63 | 1007.5 |
| 20260507133058 | 12 | 309 | 4.8 | 14.5 | 0.00 | 0.86 | 0.00 | 65 | 1007.6 |
| 20260507131550 | 11 | 343 | 3.2 | 14.5 | 0.00 | 0.86 | 0.00 | 67 | 1007.7 |
| 20260507130105 | 11 | 15 | 0.0 | 12.9 | 0.00 | 0.86 | 0.00 | 70 | 1007.7 |
| 20260507124618 | 10 | 360 | 3.2 | 9.7 | 0.00 | 0.86 | 0.00 | 72 | 1007.8 |
| 20260507123046 | 10 | 0 | 0.0 | 14.5 | 0.00 | 0.86 | 0.00 | 77 | 1008.0 |
| 20260507121553 | 9 | 313 | 4.8 | 16.1 | 0.00 | 0.86 | 0.00 | 77 | 1008.1 |
| 20260507120055 | 8 | 0 | 1.6 | 12.9 | 0.00 | 0.86 | 0.00 | 82 | 1008.1 |
| 20260507114610 | 8 | 0 | 0.0 | 4.8 | 0.00 | 0.86 | 0.00 | 87 | 1007.9 |
| 20260507113053 | 7 | 0 | 0.0 | 1.6 | 0.00 | 0.86 | 0.00 | 89 | 1008.0 |
| 20260507111550 | 7 | 0 | 0.0 | 1.6 | 0.00 | 0.86 | 0.00 | 88 | 1007.7 |
| 20260507110051 | 7 | 0 | 1.6 | 6.4 | 0.00 | 0.86 | 0.00 | 89 | 1007.6 |
| 20260507104552 | 7 | 0 | 0.0 | 1.6 | 0.00 | 0.86 | 0.00 | 91 | 1007.7 |
| 20260507103052 | 7 | 0 | 0.0 | 1.6 | 0.00 | 0.86 | 0.00 | 90 | 1007.8 |
| 20260507101551 | 7 | 0 | 0.0 | 4.8 | 0.00 | 0.86 | 0.00 | 90 | 1007.5 |
| 20260507100050 | 7 | 0 | 0.0 | 4.8 | 0.00 | 0.86 | 0.00 | 90 | 1007.8 |
| 20260507094550 | 7 | 0 | 0.0 | 1.6 | 0.00 | 0.86 | 0.00 | 92 | 1007.8 |
| 20260507093051 | 7 | 0 | 0.0 | 1.6 | 0.00 | 0.86 | 0.00 | 91 | 1007.7 |
| 20260507091545 | 8 | 0 | 0.0 | 0.0 | 0.00 | 0.86 | 0.00 | 92 | 1007.6 |
| 20260507090043 | 8 | 0 | 0.0 | 0.0 | 0.00 | 0.86 | 0.00 | 91 | 1007.6 |
| 20260507084547 | 8 | 0 | 0.0 | 9.7 | 0.00 | 0.86 | 0.00 | 90 | 1007.2 |
| 20260507083050 | 8 | 138 | 0.0 | 3.2 | 0.00 | 0.86 | 0.00 | 90 | 1007.2 |
| 20260507081547 | 8 | 0 | 0.0 | 3.2 | 0.00 | 0.86 | 0.00 | 90 | 1006.7 |
| 20260507080100 | 8 | 0 | 0.0 | 4.8 | 0.00 | 0.86 | 0.00 | 90 | 1007.3 |
| 20260507074604 | 8 | 340 | 0.0 | 6.4 | 0.00 | 0.86 | 0.00 | 90 | 1007.0 |
| 20260507073048 | 8 | 0 | 0.0 | 12.9 | 0.00 | 0.86 | 0.00 | 91 | 1006.9 |
| 20260507071550 | 8 | 227 | 0.0 | 8.0 | 0.00 | 0.86 | 0.00 | 91 | 1006.8 |
| 20260507070103 | 8 | 0 | 1.6 | 8.0 | 0.00 | 0.86 | 0.00 | 92 | 1006.4 |
| 20260507064559 | 8 | 0 | 0.0 | 8.0 | 0.00 | 0.86 | 0.00 | 92 | 1006.8 |
| 20260507063056 | 8 | 0 | 1.6 | 9.7 | 0.00 | 0.86 | 0.00 | 93 | 1006.5 |
| 20260507061546 | 8 | 0 | 0.0 | 4.8 | 0.00 | 0.86 | 0.00 | 93 | 1006.6 |
| 20260507060049 | 9 | 246 | 0.0 | 6.4 | 0.00 | 0.86 | 0.00 | 93 | 1006.7 |
| 20260507054550 | 9 | 0 | 0.0 | 1.6 | 0.00 | 0.86 | 0.00 | 94 | 1006.5 |
| 20260507053050 | 9 | 0 | 0.0 | 4.8 | 0.00 | 0.86 | 0.00 | 94 | 1006.5 |
| 20260507051544 | 10 | 0 | 0.0 | 1.6 | 0.00 | 0.86 | 0.00 | 94 | 1006.5 |
| 20260507050051 | 10 | 0 | 0.0 | 6.4 | 0.00 | 0.86 | 0.00 | 94 | 1006.3 |
| 20260507044552 | 10 | 0 | 0.0 | 6.4 | 0.00 | 0.86 | 0.00 | 94 | 1006.6 |
| 20260507043048 | 10 | 247 | 0.0 | 3.2 | 0.00 | 0.86 | 0.00 | 94 | 1006.2 |
| 20260507041546 | 11 | 0 | 0.0 | 3.2 | 0.03 | 0.86 | 0.00 | 94 | 1006.4 |
| 20260507040047 | 11 | 0 | 0.0 | 4.8 | 0.03 | 0.86 | 0.00 | 94 | 1006.1 |
| 20260507034542 | 11 | 0 | 0.0 | 11.3 | 0.03 | 0.86 | 0.86 | 94 | 1006.0 |
| 20260507033046 | 12 | 0 | 0.0 | 6.4 | 0.03 | 0.86 | 0.86 | 93 | 1006.0 |
| 20260507031550 | 12 | 0 | 0.0 | 9.7 | 0.03 | 0.84 | 0.84 | 94 | 1006.0 |
| 20260507030047 | 13 | 249 | 0.0 | 11.3 | 0.05 | 0.84 | 0.84 | 95 | 1005.7 |
| 20260507024546 | 13 | 30 | 1.6 | 8.0 | 0.08 | 0.84 | 0.84 | 96 | 1005.3 |
| 20260507023044 | 15 | 202 | 0.0 | 4.8 | 0.08 | 0.84 | 0.84 | 96 | 1005.1 |
| 20260507021547 | 15 | 0 | 0.0 | 3.2 | 0.05 | 0.81 | 0.81 | 96 | 1004.7 |
| 20260507020045 | 15 | 0 | 0.0 | 0.0 | 0.03 | 0.79 | 0.79 | 96 | 1004.8 |
| 20260507014553 | 15 | 0 | 0.0 | 3.2 | 0.00 | 0.76 | 0.76 | 96 | 1004.9 |
| 20260507013106 | 15 | 0 | 0.0 | 0.0 | 0.00 | 0.76 | 0.76 | 96 | 1005.1 |
| 20260507011546 | 15 | 0 | 0.0 | 0.0 | 0.00 | 0.76 | 0.76 | 96 | 1005.1 |
| 20260507004548 | 15 | 0 | 0.0 | 1.6 | 0.00 | 0.76 | 0.76 | 96 | 1005.0 |
| 20260507003052 | 15 | 0 | 0.0 | 6.4 | 0.00 | 0.76 | 0.76 | 96 | 1005.0 |
| 20260507001555 | 15 | 0 | 0.0 | 4.8 | 0.00 | 0.76 | 0.76 | 95 | 1004.8 |
| 20260507000054 | 15 | 0 | 0.0 | 3.2 | 0.00 | 0.76 | 0.76 | 96 | 1004.8 |
| 20260506234554 | 15 | 0 | 0.0 | 4.8 | 0.00 | 0.76 | 0.76 | 96 | 1004.8 |
| 20260506233103 | 15 | 0 | 0.0 | 4.8 | 0.00 | 0.76 | 0.76 | 96 | 1004.9 |
| 20260506231546 | 15 | 0 | 0.0 | 3.2 | 0.00 | 0.76 | 0.76 | 95 | 1005.1 |
| 20260506230050 | 15 | 312 | 0.0 | 4.8 | 0.00 | 0.76 | 0.76 | 95 | 1005.0 |
| 20260506224546 | 15 | 0 | 0.0 | 3.2 | 0.00 | 0.76 | 0.76 | 95 | 1005.1 |
| 20260506223053 | 15 | 0 | 0.0 | 8.0 | 0.05 | 0.76 | 0.76 | 95 | 1005.2 |